カタログに戻る

FENGYUN 1C DEB

運用中SSO
NORAD 29872·DEBRIS·🇨🇳 China

打ち上げ May 10, 1999 から Taiyuan Satellite Launch Center

Loading…

次のパス (今後24時間)

TLE

最新Source: Space-Track

元期: Sep 13, 2026, 23:40 UTC

1 29872U 99025FS  26256.98657192  .00000917  00000-0  22396-3 0  9993
2 29872  98.3353 270.8824 0232406 204.8087 154.1785 14.40020058 25516

AllMySatでFENGYUN 1C DEBをリアルタイム追跡

Download on the App Store